This is the latest recevied weather packets stored in our database for station/object F4NFR-13. If no packets are shown the sender has not sent any weather packets the latest 1 day(s).
| Time | Temp. | Humidity | Pressure | Rain* | Wind** | Luminosity | Snow |
|---|---|---|---|---|---|---|---|
| 1778088785 | 12.22° C | 68% | 1014 hPa | 0 mm | - | 71 W/m² | - |
| 1778087575 | 12.22° C | 66% | 1014 hPa | 0 mm | - | 77 W/m² | - |
| 1778086668 | 12.22° C | 66% | 1014 hPa | 0 mm | - | 126 W/m² | - |
| 1778086365 | 12.78° C | 66% | 1014 hPa | 0 mm | - | 96 W/m² | - |
| 1778085155 | 12.78° C | 64% | 1013.7 hPa | 0 mm | - | 235 W/m² | - |
| 1778083643 | 12.22° C | 66% | 1014 hPa | 0 mm | - | 182 W/m² | - |
| 1778083341 | 12.78° C | 66% | 1014 hPa | 0 mm | - | 209 W/m² | - |
| 1778081225 | 12.78° C | 67% | 1013.7 hPa | 0 mm | - | 292 W/m² | - |
| 1778080922 | 12.78° C | 67% | 1013.7 hPa | 0 mm | - | 251 W/m² | - |
| 1778080015 | 12.78° C | 68% | 1013.7 hPa | 0 mm | - | 252 W/m² | - |
| 1778079713 | 12.78° C | 68% | 1013.7 hPa | 0 mm | - | 221 W/m² | - |
| 1778079410 | 12.78° C | 67% | 1013.7 hPa | 0 mm | - | 183 W/m² | - |
| 1778078806 | 12.78° C | 68% | 1013.7 hPa | 0 mm | - | 221 W/m² | - |
| 1778078508 | 12.78° C | 72% | 1013.7 hPa | 0 mm | - | 271 W/m² | - |
| 1778078201 | 12.22° C | 72% | 1013.7 hPa | 0 mm | - | 173 W/m² | - |
| 1778077294 | 12.22° C | 75% | 1013.7 hPa | 0 mm | - | 288 W/m² | - |
| 1778076991 | 11.11° C | 75% | 1013.7 hPa | 0 mm | - | 209 W/m² | - |
| 1778076084 | 12.22° C | 77% | 1013.7 hPa | 0 mm | - | 93 W/m² | - |
| 1778075782 | 12.22° C | 75% | 1013.7 hPa | 0 mm | - | 134 W/m² | - |
| 1778075177 | 12.22° C | 75% | 1013.7 hPa | 0 mm | - | 198 W/m² | - |
| 1778074573 | 11.11° C | 75% | 1013.7 hPa | 0 mm | - | 99 W/m² | - |
| 1778073061 | 12.22° C | 73% | 1013.7 hPa | 0 mm | - | 293 W/m² | - |
| 1778072153 | 11.11° C | 74% | 1013.7 hPa | 0 mm | - | 271 W/m² | - |
| 1778070338 | 10° C | 79% | 1013.7 hPa | 0 mm | - | 158 W/m² | - |
| 1778069128 | 11.11° C | 83% | 1013.7 hPa | 0 mm | - | 142 W/m² | - |
* Rain latest hour (hover to see other rain measurements)
** Current wind speed in m/s (hover to see current wind gust speed)